P/2017 G1 ( PanSTARRS )

Japanese version
Home page
Updated on April 8, 2017

---------------------------------------------------------------------

* Profile

Discovery Date April 1, 2017
Magnitude 22.0 mag
Discoverer Pan-STARRS 1 telescope (Haleakala)

* Orbital Elements

Epoch 2016 May 12.0 TT = JDT 2457520.5
T 2016 May 11.95917 TT                                  MPCW
q   2.6196929            (2000.0)            P               Q
n   0.04612082     Peri.  218.15856     -0.46144734     -0.88509075
a   7.7008392      Node   259.39679     +0.82837719     -0.40537984
e   0.6598172      Incl.    3.53871     +0.31758083     -0.22865159
P  21.37
From 22 observations 2017 Mar. 25-Apr. 5, mean residual 0".2.

* Magnitudes Graph

        m1 = 13.5 + 5 log d + 10.0 log r

---------------------------------------------------------------------

The orbital elements are published on M.P.E.C. 2017-G57.
The magnitudes graphs are made with Comet for Windows.

---------------------------------------------------------------------

Copyright(C) Seiichi Yoshida (comet@aerith.net). All rights reserved.